Location: Beneden-Haastrecht
(52.0012°N, 4.7557°E)
Time: 05:24:38
(UTC+00:00)

ATLAS 5 CENTAUR R/B - Pass Details

Date: 24 October 2020
Orbit: 531 x 1127 km, 63.4° (Epoch: 22 November)

Event Time Altitude Azimuth Distance (km) Brightness Sun altitude
Rises 19:44:53 0° 294° (WNW) 2,931 6.2 -30.7°
Reaches altitude 10° 19:47:28 10° 310° (NW) 2,110 5.1 -31.1°
Enters shadow 19:50:56 23° 357° (N) 1,540 3.7 -31.5°
